Regional Weather Roundup
Issued by NWS

Home | Current Version | Previous Version | Graphics & Text | Print | Product List | Glossary On
Versions: 1 2 3 4 5 6 7 8 9 10 11 12 13 14 15 16 17 18 19 20 21 22 23 24 25 26 27 28 29 30 31 32 33 34 35 36 37 38 39 40 41 42 43 44 45 46 47 48 49 50
000
ASUS45 KBOI 290010
RWRID

IDAHO REGIONAL WEATHER ROUNDUP
NATIONAL WEATHER SERVICE BOISE ID
600 PM MDT FRI AUG 28 2015

NOTE: "FAIR" INDICATES FEW OR NO CLOUDS BELOW 12000 FEET
WITH NO SIGNIFICANT WEATHER AND/OR OBSTRUCTIONS TO VISIBILITY

IDZ012-014-290100-
SOUTHWEST IDAHO


CITY           SKY/WX    TMP DP  RH WIND       PRES   REMARKS
BOISE          CLOUDY    89  41  18 N9        29.92F
CALDWELL         N/A     86  45  23 N6        29.92S
MOUNTAIN HOME  CLOUDY    91  38  15 NW18      29.89F
$$

IDZ016-017-290100-
SOUTHCENTRAL IDAHO


CITY           SKY/WX    TMP DP  RH WIND       PRES   REMARKS
JEROME         PTSUNNY   87  44  22 S17G29    30.00S
TWIN FALLS     CLOUDY    92  38  15 W3        30.01R
$$

IDZ019>023-290100-
SOUTHEAST IDAHO


CITY           SKY/WX    TMP DP  RH WIND       PRES   REMARKS
IDAHO FALLS    PTSUNNY   88  39  17 S14       30.09F
POCATELLO      MOSUNNY   91  37  15 S7        30.07F
REXBURG        PTSUNNY   86  35  16 S8        30.10F
$$

IDZ006-010-011-018-031-032-290100-
CENTRAL IDAHO MOUNTAINS


CITY           SKY/WX    TMP DP  RH WIND       PRES   REMARKS
MCCALL         CLOUDY    75  38  26 S13       30.10F
HAILEY         PTSUNNY   82  43  24 SE8       30.11F
STANLEY          N/A     80  32  17 VRB5      30.17F
SALMON         CLOUDY    79  55  44 NW6       29.96F
CHALLIS        CLOUDY    86  33  15 W13       30.06S
$$

IDZ002-004-006-007-026-290100-
NORTHERN IDAHO


CITY           SKY/WX    TMP DP  RH WIND       PRES   REMARKS
LEWISTON       CLOUDY    85  44  23 E3        29.91R
LOWELL           N/A     70  58  65 N5        29.94F
COEUR D`ALENE  CLOUDY    79  46  31 S8        29.94R
MULLAN PASS    CLOUDY    61  39  44 CALM      30.15F
$$



USA.gov is the U.S. government's official web portal to all federal, state and local government web resources and services.